Change the Weather History Date:

Friday, April 12, 2013

  Actual Average (KHSV) Record (KHSV)
Temperature  
Mean Temperature 53 °F 61 °F  
Max Temperature 65 °F 73 °F 88 °F (1925)
Min Temperature 41 °F 49 °F 31 °F (1940)
Degree Days  
Heating Degree Days 12 6  
Month to date heating degree days 84  
Since 1 July heating degree days 2904  
Cooling Degree Days 0 2  
Month to date cooling degree days 15  
Year to date cooling degree days 29  
Growing Degree Days 3 (Base 50)    
Moisture  
Dew Point 41 °F    
Average Humidity 69    
Maximum Humidity 99    
Minimum Humidity 35    
Precipitation  
Precipitation 0.00 in 0.14 in 3.57 in (1979)
Month to date precipitation 1.76  
Year to date precipitation 16.70  
Snow  
Snow 0.00 in - - ()
Month to date snowfall  
Since 1 July snowfall  
Snow Depth -    
Sea Level Pressure  
Sea Level Pressure 29.92 in    
Wind  
Wind Speed 5 mph (NW)    
Max Wind Speed 10 mph    
Max Gust Speed 18 mph    
Visibility 9 miles    
Events      
T = Trace of Precipitation, MM = Missing Value Source: NWS Daily Summary

Daily Weather History Graph

Daily Weather History Graph

Search for Another Location

Airport or City:

Trip Planner

Search our weather history database for the weather conditions in past years. The results will help you decide how hot, cold, wet, or windy it might be!

Date:

Astronomy

Apr. 12, 2013 Rise Set
Actual Time 6:19 AM CDT 7:17 PM CDT
Civil Twilight 5:54 AM CDT 7:42 PM CDT
Nautical Twilight 5:23 AM CDT 8:13 PM CDT
Astronomical Twilight 4:52 AM CDT 8:44 PM CDT
Moon 7:34 AM CDT (4/12) 9:40 PM CDT (4/12)
Length of Visible Light 13h 48m
Length of Day
12h 57m
Waxing Crescent, 5% of the Moon is Illuminated
Apr 12
Waxing Crescent
Apr 18
First Quarter
Apr 25
Full
May 2
Last Quarter
May 9
New

Hourly Weather History & Observations

Time (CDT) Temp. Windchill Dew Point Humidity Pressure Visibility Wind Dir Wind Speed Gust Speed Precip Events Conditions
12:15 AM 54.0 °F - 53.6 °F 99% 29.74 in 7.0 mi NW 8.1 mph - N/A   Light Drizzle
12:35 AM 53.1 °F - 52.3 °F 97% 29.76 in 10.0 mi WNW 6.9 mph - N/A   Overcast
12:55 AM 52.3 °F - 51.4 °F 97% 29.76 in 10.0 mi WNW 8.1 mph 16.1 mph N/A   Overcast
1:15 AM 52.0 °F - 50.5 °F 95% 29.78 in 7.0 mi WNW 9.2 mph 17.3 mph N/A   Overcast
1:35 AM 51.1 °F - 50.0 °F 96% 29.79 in 7.0 mi NW 4.6 mph - N/A   Overcast
1:55 AM 50.5 °F - 49.1 °F 95% 29.80 in 5.0 mi WNW 8.1 mph - N/A   Overcast
2:15 AM 49.8 °F - 48.4 °F 95% 29.81 in 10.0 mi WNW 5.8 mph - N/A   Overcast
2:35 AM 49.1 °F - 47.5 °F 94% 29.81 in 5.0 mi NW 5.8 mph - N/A   Overcast
2:55 AM 48.0 °F - 46.4 °F 94% 29.81 in 10.0 mi WNW 5.8 mph 16.1 mph N/A   Overcast
3:15 AM 46.9 °F - 44.6 °F 92% 29.83 in 10.0 mi WNW 6.9 mph - N/A   Overcast
3:35 AM 45.7 °F 44.4 °F 43.0 °F 90% 29.83 in 10.0 mi NW 3.5 mph - N/A   Mostly Cloudy
3:55 AM 44.8 °F 42.4 °F 42.4 °F 91% 29.84 in 10.0 mi NW 4.6 mph - N/A   Scattered Clouds
4:15 AM 44.1 °F 40.8 °F 41.7 °F 91% 29.85 in 10.0 mi NW 5.8 mph - N/A   Clear
4:55 AM 42.8 °F 40.1 °F 41.4 °F 95% 29.86 in 10.0 mi NW 4.6 mph - N/A   Scattered Clouds
5:15 AM 42.6 °F 40.9 °F 41.4 °F 95% 29.87 in 10.0 mi NW 3.5 mph - N/A   Overcast
5:35 AM 42.3 °F 39.4 °F 41.4 °F 97% 29.88 in 10.0 mi NW 4.6 mph - N/A   Overcast
5:55 AM 42.3 °F 40.5 °F 41.5 °F 97% 29.88 in 10.0 mi WNW 3.5 mph - N/A   Overcast
6:15 AM 42.1 °F 40.2 °F 41.4 °F 97% 29.89 in 10.0 mi NW 3.5 mph - N/A   Overcast
6:35 AM 41.9 °F - 41.2 °F 97% 29.90 in 5.0 mi Calm Calm - N/A   Overcast
6:55 AM 42.1 °F 40.2 °F 41.4 °F 97% 29.91 in 5.0 mi NW 3.5 mph - N/A   Overcast
7:15 AM 42.3 °F 39.4 °F 41.4 °F 97% 29.92 in 5.0 mi NNW 4.6 mph - N/A   Overcast
7:35 AM 42.6 °F 39.9 °F 41.5 °F 96% 29.93 in 7.0 mi NNW 4.6 mph - N/A   Overcast
7:55 AM 43.3 °F 40.7 °F 42.1 °F 95% 29.94 in 7.0 mi NNW 4.6 mph - N/A   Overcast
8:15 AM 44.8 °F 41.6 °F 42.3 °F 91% 29.93 in 10.0 mi North 5.8 mph - N/A   Scattered Clouds
8:35 AM 46.2 °F 43.3 °F 41.9 °F 85% 29.94 in 10.0 mi NNW 5.8 mph - N/A   Scattered Clouds
8:55 AM 47.5 °F - 41.7 °F 80% 29.94 in 10.0 mi NNW 8.1 mph - N/A   Scattered Clouds
9:15 AM 48.0 °F - 40.3 °F 75% 29.94 in 10.0 mi North 5.8 mph - N/A   Clear
9:55 AM 50.7 °F - 39.9 °F 67% 29.96 in 10.0 mi NW 9.2 mph - N/A   Clear
10:15 AM 51.6 °F - 38.5 °F 61% 29.97 in 10.0 mi NNW 6.9 mph - N/A   Clear
10:35 AM 52.7 °F - 36.9 °F 55% 29.97 in 10.0 mi NNW 6.9 mph 18.4 mph N/A   Clear
10:55 AM 53.2 °F - 36.0 °F 52% 29.97 in 10.0 mi NW 5.8 mph - N/A   Clear
11:15 AM 55.0 °F - 37.0 °F 51% 29.97 in 10.0 mi WNW 8.1 mph - N/A   Clear
11:35 AM 55.8 °F - 36.5 °F 48% 29.97 in 10.0 mi North 8.1 mph - N/A   Clear
11:55 AM 56.1 °F - 36.5 °F 48% 29.97 in 10.0 mi Calm Calm - N/A   Clear
12:15 PM 57.7 °F - 37.9 °F 48% 29.96 in 10.0 mi NNW 4.6 mph - N/A   Clear
12:35 PM 58.6 °F - 36.5 °F 44% 29.96 in 10.0 mi West 8.1 mph 16.1 mph N/A   Clear
12:55 PM 59.2 °F - 36.3 °F 43% 29.96 in 10.0 mi West 6.9 mph - N/A   Clear
1:15 PM 59.5 °F - 36.3 °F 42% 29.95 in 10.0 mi North 6.9 mph - N/A   Clear
1:35 PM 60.4 °F - 35.6 °F 40% 29.94 in 10.0 mi SSW 3.5 mph - N/A   Clear
1:55 PM 61.5 °F - 35.1 °F 37% 29.94 in 10.0 mi North 10.4 mph - N/A   Clear
2:15 PM 62.4 °F - 34.3 °F 35% 29.93 in 10.0 mi WSW 6.9 mph - N/A   Clear
2:35 PM 63.1 °F - 36.1 °F 37% 29.94 in 10.0 mi West 6.9 mph - N/A   Clear
2:55 PM 63.3 °F - 35.8 °F 36% 29.93 in 10.0 mi Calm Calm - N/A   Clear
3:15 PM 63.7 °F - 37.0 °F 37% 29.93 in 10.0 mi WNW 5.8 mph - N/A   Clear
3:35 PM 64.0 °F - 37.2 °F 37% 29.93 in 10.0 mi West 5.8 mph - N/A   Clear
3:55 PM 64.4 °F - 38.1 °F 38% 29.93 in 10.0 mi West 5.8 mph - N/A   Clear
4:15 PM 64.8 °F - 38.3 °F 38% 29.92 in 10.0 mi NNW 4.6 mph - N/A   Clear
4:35 PM 64.9 °F - 38.8 °F 38% 29.92 in 10.0 mi North 8.1 mph - N/A   Clear
4:55 PM 64.8 °F - 38.1 °F 37% 29.92 in 10.0 mi WNW 4.6 mph - N/A   Clear
5:15 PM 65.5 °F - 38.5 °F 37% 29.92 in 10.0 mi NW 8.1 mph - N/A   Clear
5:35 PM 65.5 °F - 38.1 °F 36% 29.92 in 10.0 mi WNW 4.6 mph - N/A   Clear
5:55 PM 65.1 °F - 39.0 °F 38% 29.92 in 10.0 mi NW 5.8 mph - N/A   Clear
6:15 PM 64.2 °F - 38.5 °F 39% 29.93 in 10.0 mi NW 5.8 mph - N/A   Clear
6:35 PM 62.8 °F - 37.6 °F 39% 29.93 in 10.0 mi WNW 5.8 mph - N/A   Clear
6:55 PM 61.5 °F - 38.1 °F 42% 29.94 in 10.0 mi NW 5.8 mph - N/A   Clear
7:15 PM 60.1 °F - 38.5 °F 45% 29.94 in 10.0 mi NW 3.5 mph - N/A   Clear
7:35 PM 58.1 °F - 39.4 °F 50% 29.94 in 10.0 mi Calm Calm - N/A   Clear
7:55 PM 55.6 °F - 41.7 °F 60% 29.95 in 10.0 mi Calm Calm - N/A   Clear
8:15 PM 53.4 °F - 43.2 °F 68% 29.96 in 10.0 mi Calm Calm - N/A   Clear
8:35 PM 51.1 °F - 43.0 °F 74% 29.96 in 10.0 mi Calm Calm - N/A   Clear
8:55 PM 51.1 °F - 41.7 °F 70% 29.97 in 10.0 mi Calm Calm - N/A   Clear
9:15 PM 49.3 °F - 41.5 °F 75% 29.97 in 10.0 mi Calm Calm - N/A   Clear
9:35 PM 48.6 °F - 41.2 °F 76% 29.99 in 10.0 mi Calm Calm - N/A   Clear
9:55 PM 47.7 °F - 41.0 °F 78% 29.99 in 10.0 mi Calm Calm - N/A   Clear
10:15 PM 47.7 °F - 41.5 °F 79% 29.99 in 10.0 mi Calm Calm - N/A   Clear
10:35 PM 47.3 °F - 42.8 °F 84% 30.00 in 10.0 mi Calm Calm - N/A   Clear
10:55 PM 47.3 °F - 43.3 °F 86% 30.00 in 7.0 mi Calm Calm - N/A   Clear
11:15 PM 47.5 °F - 43.3 °F 86% 30.01 in 7.0 mi Calm Calm - N/A   Clear
11:35 PM 46.9 °F - 42.8 °F 86% 30.01 in 10.0 mi Calm Calm - N/A   Clear
11:55 PM 46.2 °F - 43.0 °F 88% 30.01 in 10.0 mi Calm Calm - N/A   Clear